Wallace Lake Weather Center

Moon Phase Calendar



Wallace Lake Water Level
Online Cameras

 


      

Current Conditions in Stonewall
9/27/2021 5:14:12 AM

64°F
Feels Like 63
Clear
Humidity
77%
Pressure
30.03"
Wind
0
Dew Point
56°F
UV Index
0/10 (Low)
Visibility
6 mi

Hourly Forecast

Date & Time Mon, Sep 27
5:00 AM
Mon, Sep 27
6:00 AM
Mon, Sep 27
7:00 AM
Mon, Sep 27
8:00 AM
Mon, Sep 27
9:00 AM
Mon, Sep 27
10:00 AM
Mon, Sep 27
11:00 AM
Mon, Sep 27
12:00 PM
Mon, Sep 27
1:00 PM
Mon, Sep 27
2:00 PM
Mon, Sep 27
3:00 PM
Mon, Sep 27
4:00 PM
Mon, Sep 27
5:00 PM
Mon, Sep 27
6:00 PM
Mon, Sep 27
7:00 PM
Mon, Sep 27
8:00 PM
Mon, Sep 27
9:00 PM
Mon, Sep 27
10:00 PM
Mon, Sep 27
11:00 PM
Tue, Sep 28
12:00 AM
Tue, Sep 28
1:00 AM
Tue, Sep 28
2:00 AM
Tue, Sep 28
3:00 AM
Tue, Sep 28
4:00 AM
Tue, Sep 28
5:00 AM
Tue, Sep 28
6:00 AM
Tue, Sep 28
7:00 AM
Tue, Sep 28
8:00 AM
Tue, Sep 28
9:00 AM
Tue, Sep 28
10:00 AM
Tue, Sep 28
11:00 AM
Tue, Sep 28
12:00 PM
Tue, Sep 28
1:00 PM
Tue, Sep 28
2:00 PM
Tue, Sep 28
3:00 PM
Tue, Sep 28
4:00 PM
Tue, Sep 28
5:00 PM
Tue, Sep 28
6:00 PM
Tue, Sep 28
7:00 PM
Tue, Sep 28
8:00 PM
Tue, Sep 28
9:00 PM
Tue, Sep 28
10:00 PM
Tue, Sep 28
11:00 PM
Wed, Sep 29
12:00 AM
Wed, Sep 29
1:00 AM
Wed, Sep 29
2:00 AM
Wed, Sep 29
3:00 AM
Wed, Sep 29
4:00 AM
Condition
Clear

Clouds

Clouds

Clouds

Clouds

Clouds

Clouds

Clouds

Clouds

Clouds

Clouds

Clouds

Clouds

Clouds

Clouds

Clouds

Clouds

Clouds

Clouds

Clouds

Clouds

Rain

Rain

Rain

Rain

Clouds

Clouds

Clouds

Clouds

Clouds

Clouds

Rain

Rain

Clouds

Rain

Clouds

Clouds

Clouds

Clouds

Clouds

Clear

Rain

Clouds

Clouds

Clouds

Clouds

Clouds

Clouds
Temperature 64°F64°F64°F66°F70°F77°F81°F84°F87°F89°F91°F91°F89°F86°F81°F77°F76°F75°F74°F73°F73°F72°F72°F71°F71°F71°F71°F72°F75°F78°F83°F84°F87°F90°F88°F85°F87°F86°F83°F81°F79°F76°F75°F75°F75°F74°F73°F72°F
Feels Like 63°F63°F64°F66°F71°F77°F82°F85°F87°F88°F89°F90°F89°F87°F83°F78°F77°F76°F75°F74°F74°F74°F73°F73°F73°F72°F72°F73°F76°F80°F87°F89°F92°F94°F92°F89°F90°F89°F86°F84°F79°F77°F77°F76°F76°F75°F74°F73°F
Cloudiness 1%17%33%59%66%79%77%71%64%15%13%30%41%50%57%86%93%95%96%95%96%100%90%83%87%85%80%94%96%97%98%98%97%80%89%92%94%95%84%16%8%5%17%33%44%99%99%86%
Visibility 6 mi6 mi6 mi6 mi6 mi6 mi6 mi6 mi6 mi6 mi6 mi6 mi6 mi6 mi6 mi6 mi6 mi6 mi6 mi6 mi6 mi6 mi6 mi6 mi6 mi6 mi6 mi6 mi6 mi6 mi6 mi6 mi6 mi6 mi6 mi6 mi6 mi6 mi6 mi6 mi6 mi6 mi6 mi6 mi6 mi6 mi6 mi6 mi
Precipitation 0%0%0%0%0%0%0%0%0%0%0%0%0%0%0%0%0%0%0%0%0%51%68%71%67%72%64%20%4%26%38%71%79%61%56%59%51%52%47%5%5%35%27%27%27%1%6%19%
Humidity 77%80%82%81%72%59%52%46%39%35%33%33%38%49%59%71%77%81%87%91%93%95%97%98%98%99%99%97%91%83%70%63%56%48%53%58%54%57%63%68%75%84%86%87%87%90%93%96%
Dew Point 56°F57°F58°F60°F61°F62°F62°F61°F59°F58°F58°F58°F60°F64°F65°F67°F68°F68°F69°F70°F70°F71°F71°F71°F71°F70°F70°F71°F72°F73°F72°F70°F70°F68°F68°F69°F68°F68°F69°F69°F70°F71°F71°F71°F71°F70°F70°F70°F
Pressure 30.03"30.03"30.03"30.06"30.06"30.06"30.06"30.03"30"29.97"29.94"29.91"29.91"29.91"29.94"29.94"29.94"29.97"29.97"29.94"29.94"29.94"29.94"29.91"29.94"29.94"29.94"29.97"29.97"29.97"29.97"29.94"29.91"29.88"29.85"29.85"29.85"29.83"29.83"29.83"29.85"29.88"29.85"29.85"29.85"29.88"29.88"29.88"
Wind Speed 4.3 mph3.8 mph3 mph2.4 mph3.4 mph4.6 mph5.5 mph6.3 mph7 mph7.3 mph6.7 mph7.2 mph9.2 mph9.9 mph8.3 mph6.4 mph5.5 mph5.5 mph6.4 mph6.2 mph6.5 mph5.6 mph5 mph4.1 mph3.7 mph3.6 mph4.1 mph3.8 mph5.2 mph5.2 mph5.4 mph6.3 mph6 mph6.3 mph7.7 mph6.7 mph6.9 mph8 mph8.6 mph10 mph9.8 mph8.5 mph8.8 mph7.7 mph6.8 mph5.8 mph4.4 mph4.5 mph
Wind
Direction
190°
S
186°
S
181°
S
180°
S
184°
S
181°
S
179°
S
182°
S
190°
S
199°
SSW
205°
SSW
202°
SSW
191°
S
184°
S
183°
S
185°
S
176°
S
164°
SSE
160°
SSE
164°
SSE
168°
SSE
170°
S
173°
S
172°
S
163°
SSE
156°
SSE
152°
SSE
157°
SSE
168°
SSE
175°
S
176°
S
180°
S
167°
SSE
161°
SSE
163°
SSE
156°
SSE
150°
SSE
146°
SE
145°
SE
156°
SSE
161°
SSE
169°
S
162°
SSE
177°
S
186°
S
186°
S
163°
SSE
139°
SE

Daily Forecast

Date High Low Precip. Humidity
Today
Sep 27

Clouds
91 °F
64 °F
0%
39%
Tuesday
Sep 28

Rain
90 °F
71 °F
79%
56%
Wednesday
Sep 29

Rain
77 °F
70 °F
100%
90%
Thursday
Sep 30

Rain
89 °F
69 °F
87%
54%
Friday
Oct 1

Rain
76 °F
70 °F
100%
91%
Saturday
Oct 2

Rain
80 °F
69 °F
100%
84%
Sunday
Oct 3

Rain
81 °F
68 °F
100%
66%
Monday
Oct 4

Rain
83 °F
67 °F
51%
56%
Tuesday
Oct 5

Clear
87 °F
66 °F
0%
48%
Wednesday
Oct 6

Clear
86 °F
64 °F
0%
44%
Thursday
Oct 7

Clear
88 °F
65 °F
0%
43%
Friday
Oct 8

Rain
89 °F
67 °F
58%
42%
Saturday
Oct 9

Rain
76 °F
65 °F
99%
77%
Sunday
Oct 10

Clear
78 °F
56 °F
0%
37%
Monday
Oct 11

Clear
79 °F
55 °F
0%
36%
Tuesday
Oct 12

Rain
78 °F
58 °F
41%
51%

Temperature 8-14 Day Outlook



Precipitation 8-14 Day Outlook




Quick Links
Wallace Lake News
Wallace Lake Photos
Wallace Lake Videos




About Us
Contact Us
Site Map
Search Site
Advertise With Us
   
Wallace.LakesOnline.com
THE WALLACE LAKE WEBSITE

Copyright 2021, Lakes Online
Privacy    |    Legal